STARLINK-1901

Last updated on Tue Nov 24 2020 00:02:02 GMT+0000 (Coordinated Universal Time)

1 46762U 20074Z 20328.58334491 -.01089001 00000-0 -18551-1 0 9992 2 46762 53.0556 13.5777 0001141 64.2237 279.1969 15.53565375 1854

Satellite not in orbit